When you browse on this site, cookies collect data to enhance your experience and personalize the content and advertising you see.
Visit our Privacy Policy to learn more. By continuing to use the site, you agree to this use of cookies and data.
EN

Hourly Weather Kendari

Today, 15 August, Saturday

Time Temperature Precipitation Wind Pressure Humidity
00:00 +23°C° 0 mm 2 mps 747 mmHg 92%
01:00 +23°C° 0 mm 1 mps 746 mmHg 93%
02:00 +22°C° 0 mm 1 mps 746 mmHg 94%
03:00 +22°C° 0 mm 1 mps 746 mmHg 95%
04:00 +22°C° 0 mm 1 mps 746 mmHg 95%
05:00 +22°C° 0 mm 1 mps 746 mmHg 96%
06:00 +23°C° 0 mm 1 mps 746 mmHg 89%
07:00 +25°C° 0 mm 1 mps 747 mmHg 82%
08:00 +27°C° 0 mm 2 mps 747 mmHg 76%
09:00 +29°C° 0 mm 1 mps 747 mmHg 66%
10:00 +31°C° 0 mm 1 mps 747 mmHg 57%
11:00 +33°C° 0 mm 1 mps 746 mmHg 48%
12:00 +34°C° 0 mm 2 mps 746 mmHg 50%
13:00 +32°C° 0 mm 2 mps 745 mmHg 52%
14:00 +33°C° 0 mm 3 mps 745 mmHg 54%
15:00 +31°C° 0 mm 3 mps 745 mmHg 60%
16:00 +30°C° 0 mm 3 mps 745 mmHg 66%
17:00 +29°C° 0 mm 3 mps 745 mmHg 72%
18:00 +28°C° 0.1 mm 3 mps 745 mmHg 78%
19:00 +26°C° 0.1 mm 3 mps 746 mmHg 84%
20:00 +25°C° 0.1 mm 3 mps 747 mmHg 90%
21:00 +25°C° 0.2 mm 2 mps 747 mmHg 91%
22:00 +25°C° 0.2 mm 2 mps 747 mmHg 92%
23:00 +25°C° 0.2 mm 2 mps 747 mmHg 93%

Tomorrow, 16 August, Sunday

Time Temperature Precipitation Wind Pressure Humidity
00:00 +24°C° 0.8 mm 2 mps 746 mmHg 94%
01:00 +24°C° 0.8 mm 2 mps 746 mmHg 95%
02:00 +24°C° 0.8 mm 2 mps 746 mmHg 96%
03:00 +24°C° 0.8 mm 2 mps 746 mmHg 96%
04:00 +24°C° 0.8 mm 2 mps 746 mmHg 97%
05:00 +24°C° 0.8 mm 2 mps 745 mmHg 97%
06:00 +25°C° 0.3 mm 2 mps 746 mmHg 96%
07:00 +25°C° 0.3 mm 2 mps 746 mmHg 95%
08:00 +26°C° 0.3 mm 2 mps 747 mmHg 93%
09:00 +27°C° 0.2 mm 1 mps 747 mmHg 86%
10:00 +29°C° 0.2 mm 1 mps 747 mmHg 79%
11:00 +30°C° 0.2 mm 1 mps 747 mmHg 72%
12:00 +30°C° 0.6 mm 1 mps 746 mmHg 74%
13:00 +30°C° 0.6 mm 1 mps 746 mmHg 77%
14:00 +29°C° 0.6 mm 2 mps 745 mmHg 79%
15:00 +29°C° 1.2 mm 2 mps 745 mmHg 83%
16:00 +28°C° 1.2 mm 2 mps 745 mmHg 87%
17:00 +27°C° 1.2 mm 1 mps 745 mmHg 91%
18:00 +26°C° 0.3 mm 1 mps 746 mmHg 92%
19:00 +26°C° 0.3 mm 1 mps 746 mmHg 93%
20:00 +25°C° 0.3 mm 1 mps 747 mmHg 94%
21:00 +25°C° 0.1 mm 2 mps 747 mmHg 95%
22:00 +24°C° 0.1 mm 3 mps 747 mmHg 95%
23:00 +24°C° 0.1 mm 3 mps 747 mmHg 96%

Day after tomorrow, 17 August, Monday

Time Temperature Precipitation Wind Pressure Humidity
00:00 +24°C° 0 mm 3 mps 747 mmHg 96%
01:00 +24°C° 0 mm 3 mps 747 mmHg 97%
02:00 +22°C° 0 mm 3 mps 747 mmHg 97%
03:00 +23°C° 0 mm 2 mps 747 mmHg 96%
04:00 +23°C° 0 mm 2 mps 747 mmHg 96%
05:00 +23°C° 0 mm 2 mps 746 mmHg 95%
06:00 +24°C° 0 mm 2 mps 747 mmHg 94%
07:00 +24°C° 0 mm 1 mps 747 mmHg 93%
08:00 +24°C° 0 mm 1 mps 747 mmHg 92%
09:00 +24°C° 0 mm 1 mps 747 mmHg 90%
10:00 +25°C° 0 mm 1 mps 747 mmHg 89%
11:00 +25°C° 0 mm 1 mps 747 mmHg 87%
12:00 +26°C° 0 mm 1 mps 746 mmHg 82%
13:00 +27°C° 0 mm 1 mps 745 mmHg 77%
14:00 +28°C° 0 mm 1 mps 745 mmHg 71%
15:00 +26°C° 0 mm 0 mps 745 mmHg 73%
16:00 +25°C° 0 mm 0 mps 745 mmHg 75%
17:00 +25°C° 0 mm 0 mps 744 mmHg 78%
18:00 +26°C° 0 mm 1 mps 745 mmHg 81%
19:00 +25°C° 0 mm 1 mps 745 mmHg 85%
20:00 +24°C° 0 mm 2 mps 746 mmHg 89%
21:00 +24°C° 0 mm 2 mps 746 mmHg 91%
22:00 +24°C° 0 mm 2 mps 746 mmHg 92%
23:00 +24°C° 0 mm 2 mps 747 mmHg 94%

18 August, Tuesday

Time Temperature Precipitation Wind Pressure Humidity
00:00 +23°C° 0 mm 1 mps 746 mmHg 94%
01:00 +23°C° 0 mm 1 mps 746 mmHg 95%
02:00 +22°C° 0 mm 1 mps 746 mmHg 96%
03:00 +22°C° 0 mm 1 mps 746 mmHg 96%
04:00 +22°C° 0 mm 1 mps 746 mmHg 96%
05:00 +22°C° 0 mm 1 mps 746 mmHg 97%
06:00 +24°C° 0 mm 1 mps 746 mmHg 90%
07:00 +25°C° 0 mm 1 mps 747 mmHg 83%
08:00 +27°C° 0 mm 1 mps 747 mmHg 77%
09:00 +28°C° 0 mm 1 mps 747 mmHg 71%
10:00 +29°C° 0 mm 1 mps 747 mmHg 65%
11:00 +30°C° 0 mm 1 mps 747 mmHg 59%
12:00 +31°C° 0 mm 1 mps 746 mmHg 58%
13:00 +31°C° 0 mm 2 mps 746 mmHg 57%
14:00 +31°C° 0 mm 2 mps 745 mmHg 56%
15:00 +30°C° 0 mm 2 mps 745 mmHg 61%
16:00 +29°C° 0 mm 2 mps 745 mmHg 66%
17:00 +28°C° 0 mm 2 mps 744 mmHg 72%
18:00 +27°C° 0 mm 2 mps 745 mmHg 77%
19:00 +26°C° 0 mm 2 mps 745 mmHg 83%
20:00 +24°C° 0 mm 3 mps 746 mmHg 89%
21:00 +24°C° 0 mm 2 mps 746 mmHg 90%
22:00 +23°C° 0 mm 2 mps 746 mmHg 92%
23:00 +23°C° 0 mm 2 mps 746 mmHg 94%

19 August, Wednesday

Time Temperature Precipitation Wind Pressure Humidity
00:00 +23°C° 0 mm 2 mps 746 mmHg 94%
01:00 +23°C° 0 mm 2 mps 746 mmHg 95%
02:00 +22°C° 0 mm 1 mps 745 mmHg 96%
03:00 +22°C° 0 mm 1 mps 745 mmHg 96%
04:00 +22°C° 0 mm 1 mps 745 mmHg 96%
05:00 +22°C° 0 mm 1 mps 745 mmHg 96%
06:00 +24°C° 0 mm 1 mps 746 mmHg 89%
07:00 +25°C° 0 mm 1 mps 746 mmHg 82%
08:00 +27°C° 0 mm 1 mps 747 mmHg 75%
09:00 +28°C° 0 mm 1 mps 747 mmHg 67%
10:00 +30°C° 0 mm 1 mps 747 mmHg 60%
11:00 +31°C° 0 mm 1 mps 747 mmHg 52%
12:00 +31°C° 0 mm 2 mps 746 mmHg 52%
13:00 +31°C° 0 mm 3 mps 745 mmHg 52%
14:00 +31°C° 0 mm 3 mps 744 mmHg 51%
15:00 +30°C° 0 mm 3 mps 744 mmHg 57%
16:00 +29°C° 0 mm 3 mps 744 mmHg 62%
17:00 +28°C° 0 mm 3 mps 744 mmHg 67%
18:00 +27°C° 0 mm 3 mps 745 mmHg 74%
19:00 +25°C° 0 mm 3 mps 745 mmHg 80%
20:00 +24°C° 0 mm 3 mps 746 mmHg 86%
21:00 +24°C° 0 mm 2 mps 746 mmHg 87%
22:00 +23°C° 0 mm 2 mps 746 mmHg 89%
23:00 +23°C° 0 mm 1 mps 746 mmHg 90%

20 August, Thursday

Time Temperature Precipitation Wind Pressure Humidity
00:00 +22°C° 0 mm 1 mps 746 mmHg 91%
01:00 +22°C° 0 mm 1 mps 746 mmHg 93%
02:00 +22°C° 0 mm 1 mps 745 mmHg 94%
03:00 +22°C° 0 mm 1 mps 746 mmHg 95%
04:00 +20°C° 0 mm 0 mps 746 mmHg 95%
05:00 +20°C° 0 mm 0 mps 746 mmHg 95%
06:00 +23°C° 0 mm 1 mps 746 mmHg 88%
07:00 +25°C° 0 mm 1 mps 747 mmHg 80%
08:00 +27°C° 0 mm 1 mps 747 mmHg 73%
09:00 +29°C° 0 mm 1 mps 747 mmHg 67%
10:00 +30°C° 0 mm 1 mps 747 mmHg 61%
11:00 +31°C° 0 mm 1 mps 747 mmHg 56%
12:00 +31°C° 0 mm 2 mps 746 mmHg 57%
13:00 +31°C° 0 mm 2 mps 745 mmHg 59%
14:00 +31°C° 0 mm 2 mps 745 mmHg 60%
15:00 +30°C° 0 mm 2 mps 745 mmHg 65%
16:00 +29°C° 0 mm 3 mps 745 mmHg 70%
17:00 +28°C° 0 mm 3 mps 745 mmHg 75%
18:00 +27°C° 0 mm 3 mps 745 mmHg 81%
19:00 +26°C° 0 mm 3 mps 746 mmHg 86%
20:00 +25°C° 0 mm 3 mps 746 mmHg 91%
21:00 +25°C° 0 mm 2 mps 746 mmHg 92%
22:00 +24°C° 0 mm 2 mps 747 mmHg 93%
23:00 +24°C° 0 mm 2 mps 747 mmHg 94%
Show more